Tepic, Mexico

8:20 AM MST on February 08, 2016 (GMT -0700)
Tepic

Weather History for MMEP - May, 2013

Change the Weather History Date:

Wednesday, May 1, 2013

  Actual Average Record
Temperature  
Mean Temperature 72 °F -  
Max Temperature 88 °F 88 °F 93 °F (2011)
Min Temperature 56 °F 48 °F 39 °F (2005)
Cooling Degree Days 7    
Growing Degree Days 22 (Base 50)    
Moisture  
Dew Point 51 °F    
Average Humidity 53    
Maximum Humidity 100    
Minimum Humidity 14    
Precipitation  
Precipitation 0.00 in - - ()
Sea Level Pressure  
Sea Level Pressure 29.94 in    
Wind  
Wind Speed 3 mph ()    
Max Wind Speed 12 mph    
Max Gust Speed -    
Visibility 9.5 miles    
Events Fog    
Averages and records for this station are not official NWS values.
T = Trace of Precipitation, MM = Missing Value Source: Averaged Metar Reports

Daily Weather History Graph

Daily Weather History Graph

Search for Another Location

Airport or City:

Trip Planner

Search our weather history database for the weather conditions in past years. The results will help you decide how hot, cold, wet, or windy it might be!

Date:

Astronomy

May. 01, 2013 Rise Set
Actual Time 6:28 AM MDT 7:25 PM MDT
Civil Twilight 6:04 AM MDT 7:48 PM MDT
Nautical Twilight 5:37 AM MDT 8:16 PM MDT
Astronomical Twilight 5:09 AM MDT 8:44 PM MDT
Moon 12:34 AM MDT (5/1) 12:09 PM MDT (5/1)
Length of Visible Light 13h 43m
Length of Day
12h 56m
Waning Gibbous, 58% of the Moon is Illuminated
May 1
Waning Gibbous
May 2
Last Quarter
May 9
New
May 17
First Quarter
May 24
Full

Hourly Weather History & Observations

Time (MDT) Temp. Heat Index Dew Point Humidity Pressure Visibility Wind Dir Wind Speed Gust Speed Precip Events Conditions
2:30 AM 62 °F - 57 °F 80% 29.83 in 6 mi ESE 2.2 mph - -  
5:30 AM 59 °F - 54 °F 78% 29.83 in 6 mi SSE 4.5 mph - -   Clear
6:13 AM 46.4 °F - 46.4 °F 100% 29.97 in 0.5 mi Calm Calm - N/A Fog Fog
6:52 AM 46.4 °F - 46.4 °F 100% 30.10 in 0.5 mi Calm Calm - N/A Fog Fog
7:54 AM 51.8 °F - 48.2 °F 88% 30.10 in 10.0 mi Calm Calm - N/A   Overcast
8:40 AM 64 °F - 49 °F 48% 29.85 in 12 mi ESE 4.5 mph - -   Clear
8:48 AM 59.0 °F - 53.6 °F 82% 29.98 in 12.0 mi Calm Calm - N/A   Mostly Cloudy
9:41 AM 73.4 °F - 46.4 °F 38% 30.10 in 12.0 mi Calm Calm - N/A   Scattered Clouds
10:54 AM 82.4 °F - 32.0 °F 16% 30.10 in 12.0 mi ESE 3.5 mph - N/A   Partly Cloudy
11:40 AM 84 °F - 43 °F 14% 29.80 in 12 mi WNW 4.5 mph - -  
12:42 PM 86.0 °F - 39.2 °F 19% 30.06 in 12.0 mi WNW 5.8 mph - N/A   Scattered Clouds
1:46 PM 89.6 °F - 35.6 °F 15% 30.04 in 12.0 mi North 5.8 mph - N/A   Scattered Clouds
2:33 PM 88 °F - 56 °F 24% 29.79 in 12 mi West 6.7 mph - -  
2:49 PM 89.6 °F - 50.0 °F 26% 29.85 in 12.0 mi North 8.1 mph - N/A   Scattered Clouds
3:49 PM 86.0 °F 86.1 °F 60.8 °F 43% 30.02 in 12.0 mi NNW 9.2 mph - N/A   Clear
4:45 PM 82.4 °F 83.4 °F 62.6 °F 51% 30.02 in 12.0 mi North 11.5 mph - N/A   Clear
5:36 PM 79 °F - 61 °F 44% 29.77 in 12 mi West 8.9 mph - -  
5:47 PM 80.6 °F 81.8 °F 62.6 °F 54% 29.88 in 12.0 mi NNW 9.2 mph - N/A   Clear
8:36 PM 70 °F - 61 °F 65% 29.85 in 6 mi NW 4.5 mph - -  
11:35 PM 65 °F - 60 °F 81% 29.88 in 6 mi Calm Calm - -